Погода в Выезжем Логе

Россия / Красноярский край     54°58′30″N   93°55′52″E
темп.,
°C
ветер,
м/с
пор.,
м/с
влажн.,
%
обл.,
%
осадки,
мм/ч
давл.,
гПа
погр.,
м
6 мая, чт
чт601:00+1ю41190100 1.6 1018333
04:00+2ю4883100 0.6 1016222
07:00+4ю477952 0.6 1015210
10:00+11ююз375897 0.0 1012809
13:00+16зюз574562 0.0 10101702
16:00+17з464259 0.0 10092069
19:00+15ююз116083 0.1 100913
22:00+8ююв2288100 0.0 101137
7 мая, пт
пт701:00+6ююв228833 0.0 101035
04:00+6ююв228696 0.0 101032
07:00+9ююв2474100 0.0 1008117
10:00+17ююз3647100 0.0 1005739
13:00+18юз4546100 0.1 10051209
16:00+12ююв2787100 2.4 1006337
19:00+11зюз2396100 5.3 1006107
22:00+9з31077100 2.0 1010691
8 мая, сб
сб801:00+7зюз3117589 2.2 1013436
04:00+6зюз3983100 0.1 1014621
07:00+6з51085100 1.0 1016934
10:00+8з7116360 0.4 10161781
13:00+11зсз61038100 0.5 10152411
16:00+12з6113376 0.0 10132673
19:00+10з51053100 0.0 10141604
22:00+7з51286100 1.8 10131268
9 мая, вс
вс901:00+6зсз4992100 10.1 10131308
04:00+3з31097100 4.8 1014703
07:00+2з41195100 7.4 1016957
10:00+2зсз4779100 0.4 10171157
13:00+5з5864100 0.7 10171646
16:00+4сз5774100 0.6 10191323
19:00+2сз2790100 1.1 1022665
22:00+2зсз119997 0.3 1023170
10 мая, пн
пн1001:00+2юв0086100 0.3 102232
04:00+2ю1185100 0.0 102224
07:00+3вюв127979 0.0 1022149
10:00+7всв23576 0.0 10201131
13:00+10св434764 0.0 10171768
16:00+9св554963 0.0 10161399
19:00+7св57675 0.0 1016843
22:00+3всв28845 0.0 1016204